Tracking 19176 objects as of 26-May-2018
HD Live streaming from Space Station
objects crossing your sky now

TDRS 4

Track TDRS 4 now!
TDRS 4 is classified as:


NORAD ID: 19883
Int'l Code: 1989-021B
Perigee: 36,224.6 km
Apogee: 36,379.8 km
Inclination: 13.0 °
Period: 1,462.2 minutes
Semi major axis: 42673 km
RCS: 20.9264 m2 (large)
Launch date: March 13, 1989
Source: United States (US)
Launch site: AIR FORCE EASTERN TEST RANGE (AFETR)

Tracking and communications with space shuttle, other missions.
aabbcc
Your satellite tracking list
Your tracking list is empty




NASA's NSSDC Master Catalog

Two Line Element Set (TLE):
1 19883U 89021B   18145.42829399 -.00000218 +00000-0 +00000-0 0  9996
2 19883 012.9816 014.1366 0018192 259.7419 302.6106 00.98485021279044
Source of the keplerian elements: AFSPC